Douglas, WY

10:20 PM MDT on June 25, 2017 (GMT -0600)
Converse County

Weather History for KDGW - October, 2013

Change the Weather History Date:

Thursday, October 17, 2013

  Actual Average Record
Temperature  
Mean Temperature 35 °F 45 °F  
Max Temperature 39 °F 61 °F 80 °F (1974)
Min Temperature 30 °F 30 °F 11 °F (1999)
Degree Days  
Heating Degree Days 30 20  
Month to date heating degree days 366 288  
Since 1 July heating degree days 504 557  
Cooling Degree Days 0 0  
Month to date cooling degree days 0 0  
Year to date cooling degree days 739 486  
Moisture  
Dew Point 29 °F    
Average Humidity 77    
Maximum Humidity 89    
Minimum Humidity 64    
Precipitation  
Precipitation T in 0.04 in 0.36 in (2011)
Month to date precipitation 0.01 0.71  
Year to date precipitation 7.27 11.99  
Sea Level Pressure  
Sea Level Pressure 30.14 in    
Wind  
Wind Speed 7 mph (NNW)    
Max Wind Speed 17 mph    
Max Gust Speed 22 mph    
Visibility 9 miles    
Events Snow    
T = Trace of Precipitation, MM = Missing Value Source: NWS Daily Summary

Daily Weather History Graph

Daily Weather History Graph

Search for Another Location

Airport or City:

Trip Planner

Search our weather history database for the weather conditions in past years. The results will help you decide how hot, cold, wet, or windy it might be!

Date:

Astronomy

Oct. 17, 2013 Rise Set
Actual Time 7:17 AM MDT 6:15 PM MDT
Civil Twilight 6:48 AM MDT 6:43 PM MDT
Nautical Twilight 6:16 AM MDT 7:16 PM MDT
Astronomical Twilight 5:43 AM MDT 7:49 PM MDT
Moon 5:31 PM MDT (10/17) 5:51 AM MDT (10/17)
Length of Visible Light 11h 54m
Length of Day
10h 57m
Waxing Gibbous, 98% of the Moon is Illuminated
Oct 17
Waxing Gibbous
Oct 18
Full
Oct 26
Last Quarter
Nov 3
New
Nov 9
First Quarter

Hourly Weather History & Observations

Time (MDT) Temp. Windchill Dew Point Humidity Pressure Visibility Wind Dir Wind Speed Gust Speed Precip Events Conditions
12:53 AM 35.1 °F 27.4 °F 30.0 °F 82% 30.10 in 10.0 mi WNW 10.4 mph - N/A   Mostly Cloudy
1:53 AM 35.1 °F 30.1 °F 30.9 °F 85% 30.10 in 10.0 mi NW 5.8 mph - N/A   Overcast
2:41 AM 35.6 °F 31.7 °F 30.2 °F 81% 30.11 in 10.0 mi NW 4.6 mph - N/A   Mostly Cloudy
2:53 AM 34.0 °F 28.8 °F 30.0 °F 85% 30.11 in 10.0 mi NW 5.8 mph - N/A   Overcast
3:53 AM 36.0 °F 27.1 °F 30.9 °F 82% 30.09 in 10.0 mi NW 13.8 mph 21.9 mph N/A   Overcast
4:53 AM 36.0 °F 27.5 °F 30.9 °F 82% 30.10 in 10.0 mi NNW 12.7 mph - N/A   Overcast
5:36 AM 35.6 °F 26.6 °F 30.2 °F 81% 30.12 in 10.0 mi NNW 13.8 mph - N/A   Overcast
5:53 AM 35.1 °F 26.4 °F 30.0 °F 82% 30.13 in 10.0 mi NNW 12.7 mph - N/A   Overcast
6:53 AM 34.0 °F 26.0 °F 28.9 °F 82% 30.16 in 10.0 mi North 10.4 mph - N/A   Overcast
7:25 AM 33.8 °F 27.0 °F 30.2 °F 87% 30.13 in 7.0 mi NNW 8.1 mph - 0.00 in Snow Light Snow
7:34 AM 33.8 °F 28.6 °F 30.2 °F 87% 30.13 in 6.0 mi North 5.8 mph - 0.00 in Snow Light Snow
7:44 AM 33.8 °F 25.8 °F 30.2 °F 87% 30.14 in 7.0 mi North 10.4 mph - 0.00 in Snow Light Snow
7:53 AM 33.1 °F 24.9 °F 30.0 °F 89% 30.18 in 5.0 mi North 10.4 mph - 0.00 in Snow Light Snow
8:00 AM 32.0 °F 23.0 °F 30.2 °F 93% 30.14 in 2.0 mi North 11.5 mph - 0.00 in Snow Light Snow
8:07 AM 32.0 °F 23.6 °F 30.2 °F 93% 30.14 in 1.2 mi North 10.4 mph - 0.00 in Snow Light Snow
8:18 AM 32.0 °F 24.2 °F 28.4 °F 87% 30.15 in 3.0 mi North 9.2 mph - 0.00 in Snow Light Snow
8:53 AM 33.1 °F 24.9 °F 30.0 °F 89% 30.21 in 6.0 mi North 10.4 mph - 0.00 in Snow Light Snow
9:32 AM 35.6 °F 29.2 °F 30.2 °F 81% 30.17 in 4.0 mi North 8.1 mph - 0.00 in Snow Light Snow
9:53 AM 34.0 °F 27.2 °F 30.0 °F 85% 30.22 in 10.0 mi North 8.1 mph - 0.00 in   Overcast
10:09 AM 33.8 °F 27.0 °F 30.2 °F 87% 30.17 in 6.0 mi North 8.1 mph - 0.00 in Snow Light Snow
10:35 AM 35.6 °F 28.6 °F 30.2 °F 81% 30.16 in 10.0 mi North 9.2 mph - 0.00 in   Overcast
10:46 AM 35.6 °F 28.0 °F 30.2 °F 81% 30.16 in 7.0 mi NNW 10.4 mph - 0.00 in Snow Light Snow
10:53 AM 35.1 °F 28.6 °F 28.9 °F 78% 30.22 in 9.0 mi NNW 8.1 mph - 0.00 in Snow Light Snow
11:28 AM 37.4 °F 30.3 °F 26.6 °F 65% 30.15 in 10.0 mi North 10.4 mph - N/A   Overcast
11:53 AM 37.0 °F 30.4 °F 28.0 °F 70% 30.20 in 10.0 mi NNW 9.2 mph - N/A   Overcast
12:53 PM 37.0 °F 31.0 °F 27.0 °F 67% 30.17 in 10.0 mi NNW 8.1 mph - N/A   Overcast
1:53 PM 37.9 °F 34.4 °F 27.0 °F 65% 30.14 in 10.0 mi NNW 4.6 mph - N/A   Overcast
2:46 PM 37.4 °F 33.8 °F 26.6 °F 65% 30.09 in 10.0 mi North 4.6 mph - N/A   Overcast
2:53 PM 37.9 °F 32.7 °F 27.0 °F 65% 30.13 in 10.0 mi NNW 6.9 mph - N/A   Overcast
3:18 PM 37.4 °F 32.8 °F 26.6 °F 65% 30.09 in 10.0 mi NNW 5.8 mph - N/A   Overcast
3:53 PM 37.9 °F 32.1 °F 27.0 °F 65% 30.12 in 10.0 mi North 8.1 mph - N/A   Overcast
4:04 PM 39.2 °F 34.2 °F 26.6 °F 61% 30.09 in 10.0 mi North 6.9 mph - N/A   Overcast
4:15 PM 37.4 °F 32.8 °F 26.6 °F 65% 30.08 in 10.0 mi North 5.8 mph - N/A   Overcast
4:53 PM 37.9 °F 32.1 °F 27.0 °F 65% 30.12 in 10.0 mi North 8.1 mph - N/A   Overcast
5:29 PM 37.4 °F 32.1 °F 26.6 °F 65% 30.09 in 10.0 mi North 6.9 mph - N/A   Overcast
5:53 PM 37.0 °F 32.4 °F 28.0 °F 70% 30.12 in 10.0 mi NNW 5.8 mph - N/A   Overcast
6:53 PM 36.0 °F - 28.9 °F 76% 30.14 in 10.0 mi Calm Calm - N/A   Overcast
7:53 PM 36.0 °F 32.1 °F 30.0 °F 79% 30.14 in 10.0 mi West 4.6 mph - N/A   Overcast
8:53 PM 36.0 °F 32.1 °F 30.9 °F 82% 30.15 in 10.0 mi West 4.6 mph - N/A   Overcast
9:53 PM 35.1 °F 30.1 °F 30.9 °F 85% 30.17 in 10.0 mi NW 5.8 mph - N/A   Overcast
10:53 PM 33.1 °F 28.7 °F 28.9 °F 85% 30.18 in 10.0 mi North 4.6 mph - N/A   Mostly Cloudy
11:53 PM 30.9 °F 27.5 °F 27.0 °F 85% 30.17 in 10.0 mi West 3.5 mph - 0.01 in   Partly Cloudy